Location: Clanezzo
(45.7500°N, 9.6000°E)
Time: 02:31:25
(UTC+00:00)

SPOT 1/Viking Rocket - Pass Details

Date: 12 May 2021
Orbit: 776 x 794 km, 98.4° (Epoch: 18 June)

Event Time Altitude Azimuth Distance (km) Brightness Sun altitude
Exits shadow 20:52:17 19° 191° (S) 1,814 5.0 -17.9°
Maximum altitude 20:55:52 51° 260° (W) 992 4.2 -18.3°
Drops below altitude 10° 21:00:56 10° 336° (NNW) 2,358 7.2 -18.8°
Sets 21:03:20 0° 342° (NNW) 3,288 8.2 -19.0°
